Weather History for Pierre, SD

Change the Weather History Date:

Saturday, May 11, 2013

  Actual Average Record
Temperature  
Mean Temperature 46 °F 56 °F  
Max Temperature 59 °F 69 °F 94 °F (1940)
Min Temperature 32 °F 44 °F 25 °F (1946)
Degree Days  
Heating Degree Days 19 9  
Month to date heating degree days 186 117  
Since 1 July heating degree days 7529 7107  
Cooling Degree Days 0 1  
Month to date cooling degree days 0 9  
Year to date cooling degree days 0 13  
Moisture  
Dew Point 21 °F    
Average Humidity 41    
Maximum Humidity 64    
Minimum Humidity 18    
Precipitation  
Precipitation 0.00 in 0.09 in 1.15 in (2005)
Month to date precipitation T 0.99  
Year to date precipitation 4.69 5.04  
Sea Level Pressure  
Sea Level Pressure 30.32 in    
Wind  
Wind Speed 11 mph (North)    
Max Wind Speed 25 mph    
Max Gust Speed 30 mph    
Visibility 10 miles    
Events      
T = Trace of Precipitation, MM = Missing Value Source: NWS Daily Summary

Daily Weather History Graph

Daily Weather History Graph

Search for Another Location

Airport:

Trip Planner

Search our weather history database for the weather conditions in past years. The results will help you decide how hot, cold, wet, or windy it might be!

Date:

Astronomy

May. 11, 2013 Rise Set
Actual Time 6:18 AM CDT 8:57 PM CDT
Civil Twilight 5:45 AM CDT 9:30 PM CDT
Nautical Twilight 5:03 AM CDT 10:12 PM CDT
Astronomical Twilight 4:15 AM CDT 11:01 PM CDT
Moon 7:26 AM CDT (5/11) 10:40 PM CDT (5/11)
Length of Visible Light 15h 45m
Length of Day
14h 39m
Waxing Crescent, 3% of the Moon is Illuminated
May 11
Waxing Crescent
May 17
First Quarter
May 24
Full
May 31
Last Quarter
Jun 8
New

Hourly Weather History & Observations

Time (CDT) Temp. Windchill Dew Point Humidity Pressure Visibility Wind Dir Wind Speed Gust Speed Precip Events Conditions
12:53 AM 48.0 °F - 27.0 °F 44% 30.24 in 10.0 mi NNW 12.7 mph - N/A   Clear
1:53 AM 46.9 °F - 26.1 °F 44% 30.26 in 10.0 mi NNW 17.3 mph - N/A   Clear
2:53 AM 44.1 °F 37.4 °F 24.1 °F 45% 30.28 in 10.0 mi NNW 13.8 mph - N/A   Clear
3:53 AM 36.0 °F 29.0 °F 24.1 °F 62% 30.29 in 10.0 mi NW 9.2 mph - N/A   Clear
4:53 AM 35.1 °F 27.4 °F 24.1 °F 64% 30.30 in 10.0 mi WNW 10.4 mph - N/A   Clear
5:53 AM 39.0 °F 31.0 °F 27.0 °F 62% 30.32 in 10.0 mi NNW 13.8 mph - N/A   Clear
6:53 AM 37.9 °F 29.2 °F 25.0 °F 60% 30.36 in 10.0 mi North 15.0 mph - N/A   Clear
7:53 AM 41.0 °F 32.8 °F 27.0 °F 57% 30.38 in 10.0 mi North 16.1 mph - N/A   Clear
8:53 AM 45.0 °F 37.4 °F 24.1 °F 44% 30.39 in 10.0 mi North 18.4 mph - N/A   Clear
9:53 AM 48.0 °F - 25.0 °F 41% 30.40 in 10.0 mi North 17.3 mph 24.2 mph N/A   Clear
10:53 AM 50.0 °F - 19.9 °F 31% 30.42 in 10.0 mi NNW 21.9 mph 29.9 mph N/A   Clear
11:53 AM 52.0 °F - 21.0 °F 30% 30.40 in 10.0 mi NNW 13.8 mph 27.6 mph N/A   Clear
12:53 PM 53.1 °F - 18.0 °F 25% 30.40 in 10.0 mi NW 15.0 mph 26.5 mph N/A   Clear
1:53 PM 55.0 °F - 17.1 °F 23% 30.37 in 10.0 mi North 15.0 mph 20.7 mph N/A   Clear
2:53 PM 55.9 °F - 17.1 °F 22% 30.35 in 10.0 mi NNW 12.7 mph 23.0 mph N/A   Clear
3:53 PM 57.0 °F - 17.1 °F 21% 30.33 in 10.0 mi North 9.2 mph 21.9 mph N/A   Clear
4:53 PM 57.9 °F - 16.0 °F 19% 30.30 in 10.0 mi West 10.4 mph 16.1 mph N/A   Clear
5:53 PM 59.0 °F - 16.0 °F 19% 30.30 in 10.0 mi North 5.8 mph - N/A   Clear
6:53 PM 57.9 °F - 15.1 °F 19% 30.28 in 10.0 mi North 4.6 mph - N/A   Clear
7:53 PM 55.0 °F - 18.0 °F 23% 30.26 in 10.0 mi NE 6.9 mph - N/A   Clear
8:53 PM 48.0 °F - 17.1 °F 29% 30.25 in 10.0 mi ENE 5.8 mph - N/A   Clear
9:53 PM 42.1 °F 39.2 °F 18.0 °F 38% 30.25 in 10.0 mi ENE 4.6 mph - N/A   Clear
11:53 PM 37.0 °F 31.6 °F 16.0 °F 42% 30.26 in 10.0 mi East 6.9 mph - N/A   Clear